Find Kosmos-2412

NORAD ID: 28510 Int'l Des: 2004-053 Owner: KVR/IACG Country: RU Constellation: GLONASS operational
MEOCIRCULAR

Live-Position

3D-Globus wird geladen...

Über Kosmos-2412

Beschreibung wird geladen...

Nächste Überflüge

Passes for default location (London). Set your location on the main map for personalized predictions.

Höhenverlauf

Loading altitude history...

Zweizeiliger Elementsatz

1 28510U 04053C 26133.23576964 -.00000027 00000-0 00000+0 0 9994
2 28510 64.1959 61.5500 0007036 251.5596 287.5310 2.13103012166370
Epoch: 13. Mai 2026 • Age: 80 hours

Aktueller Status

Höhe 19127.6 km
Geschwindigkeit 3.95 km/s
Subsatellitenpunkt -40.29°S, 178.07°W
Startdatum 26. Dez. 2004
Alter 21.3 years
Typ other

Technische Details

Klassifizierung Payload
Masse 1450.00 kg
Trockenmasse 1200.00 kg
Gesamtmasse 1450.00 kg
Länge 4.00 m
Durchmesser 1.50 m
Spannweite 7.80 m
Form Cyl + Ant + 2 Pan
Hersteller POL
Bus-Typ Uragan
Phasenstatus In Orbit
Besitzer/Staat KVR/IACG/RU

Most Searched